STARLINK-35293 (66012 NORAD) Tracking and Keplerian Element Data

This shows tracking and keplerian element data for the satellite.

Feedback or suggestion? Click here.




ElementValue
Catalog66012
NameSTARLINK-35293
Epoch Orbit1124
Epoch Day354.03049011
Epoch Year2025
RAAN113.6167
Inclination53.1587
Eccentricity6.17E-05
Argument of Perigee57.713
Mean Anonmoly302.393
Mean Motion15.30208652
Decay Rate0.00017884
L11 66012U 25232H 25354.03049011 .00017884 00000+0 61430-3 0 9990
L22 66012 53.1587 113.6167 0000617 57.7130 302.3930 15.30208652 11248



Live tracking and technical data element details for STARLINK-35293 (NORAD 66012). STARLINK-35293 can be tracked NOW for your location showing map with azimuth and elevation plus other details from your city location.







IsCatalogInMostPopularTable: catalog: 66012, numindb: 3
Update: records affected: 1



GetName: 66012 STARLINK-35293

Hit Count: updated at: Sun, 08 Feb 2026 17:21:32 GMT